SIA956 WSSS-WIII

Flight info

Callsign SIA956
Flight time 1h 23m
Altitude 41000
Route ANIT8B ANITO B470 BUNIK BUNI2F
Aircraft A359/H-SDE2E3GHIJ1J3J4J5LM1ORWXYZ/LB1D1

Departure

Time 2026-05-05 04:23
Airport Singapore Changi Airport (WSSS)

Arrival

Time 2026-05-05 05:47
Airport Soekarno-Hatta International Airport (WIII)
Time Latitude Longitude Altitude Speed Heading
2026-05-05 03:59 1.35168 103.98878 31 ft 0 kts 293°
2026-05-05 04:09 1.35162 103.98891 30 ft 4 kts 293°
2026-05-05 04:10 1.35151 103.98916 29 ft 4 kts 293°
2026-05-05 04:10 1.35142 103.98937 28 ft 4 kts 283°
2026-05-05 04:10 1.35145 103.98956 28 ft 4 kts 211°
2026-05-05 04:10 1.35169 103.98965 28 ft 4 kts 189°
2026-05-05 04:11 1.35196 103.98969 28 ft 4 kts 194°
2026-05-05 04:11 1.35207 103.98972 28 ft 0 kts 202°
2026-05-05 04:14 1.35208 103.98972 31 ft 0 kts 202°
2026-05-05 04:16 1.35183 103.98962 31 ft 8 kts 202°
2026-05-05 04:16 1.35125 103.98950 31 ft 9 kts 180°
2026-05-05 04:16 1.35055 103.98961 31 ft 11 kts 171°
2026-05-05 04:16 1.34974 103.98970 31 ft 13 kts 174°
2026-05-05 04:17 1.34891 103.99005 31 ft 14 kts 139°
2026-05-05 04:17 1.34848 103.99090 32 ft 13 kts 90°
2026-05-05 04:17 1.34905 103.99154 32 ft 14 kts 25°
2026-05-05 04:17 1.34998 103.99195 32 ft 16 kts 24°
2026-05-05 04:18 1.35104 103.99241 32 ft 18 kts 22°
2026-05-05 04:18 1.35222 103.99288 32 ft 19 kts 22°
2026-05-05 04:18 1.35348 103.99342 32 ft 20 kts 24°
2026-05-05 04:18 1.35482 103.99399 32 ft 22 kts 22°
2026-05-05 04:19 1.35626 103.99460 32 ft 23 kts 23°
2026-05-05 04:19 1.35779 103.99524 32 ft 25 kts 22°
2026-05-05 04:19 1.35942 103.99591 32 ft 26 kts 22°
2026-05-05 04:19 1.36113 103.99662 31 ft 27 kts 22°
2026-05-05 04:20 1.36292 103.99736 31 ft 27 kts 22°
2026-05-05 04:20 1.36318 103.99747 31 ft 3 kts 22°
2026-05-05 04:20 1.36370 103.99773 31 ft 11 kts 40°
2026-05-05 04:20 1.36378 103.99837 30 ft 10 kts 128°
2026-05-05 04:21 1.36317 103.99862 32 ft 9 kts 169°
2026-05-05 04:21 1.36249 103.99875 32 ft 11 kts 169°
2026-05-05 04:21 1.36171 103.99880 33 ft 12 kts 188°
2026-05-05 04:21 1.36118 103.99865 32 ft 0 kts 201°
2026-05-05 04:22 1.36089 103.99853 32 ft 18 kts 202°
2026-05-05 04:23 1.35759 103.99714 35 ft 86 kts 202°
2026-05-05 04:23 1.35013 103.99400 36 ft 145 kts 202°
2026-05-05 04:23 1.33975 103.98963 413 ft 163 kts 202°
2026-05-05 04:23 1.32938 103.98503 1068 ft 165 kts 205°
2026-05-05 04:24 1.31841 103.98034 1424 ft 180 kts 203°
2026-05-05 04:24 1.30625 103.97526 1622 ft 200 kts 203°
2026-05-05 04:24 1.29298 103.96972 1814 ft 218 kts 203°
2026-05-05 04:25 1.26235 103.95689 2351 ft 256 kts 203°
2026-05-05 04:25 1.24569 103.94998 2866 ft 262 kts 202°
2026-05-05 04:25 1.22789 103.94585 3421 ft 266 kts 181°
2026-05-05 04:25 1.20949 103.94832 4034 ft 269 kts 167°
2026-05-05 04:26 1.19120 103.95284 4641 ft 272 kts 166°
2026-05-05 04:26 1.17284 103.95756 5195 ft 274 kts 166°
2026-05-05 04:26 1.15426 103.96229 5704 ft 276 kts 166°
2026-05-05 04:26 1.13557 103.96698 5946 ft 277 kts 166°
2026-05-05 04:27 1.11687 103.97185 5968 ft 279 kts 163°
2026-05-05 04:27 1.09949 103.98038 5975 ft 280 kts 146°
2026-05-05 04:27 1.08906 103.98793 5972 ft 280 kts 143°
2026-05-05 04:27 1.07362 103.99991 5973 ft 281 kts 142°
2026-05-05 04:28 1.05822 104.01196 5973 ft 281 kts 142°
2026-05-05 04:28 1.03771 104.02811 5970 ft 281 kts 140°
2026-05-05 04:28 1.02883 104.03750 5973 ft 282 kts 126°
2026-05-05 04:28 1.01955 104.05466 5979 ft 281 kts 114°
2026-05-05 04:29 1.01193 104.07267 5990 ft 282 kts 112°
2026-05-05 04:29 1.00202 104.09661 5992 ft 281 kts 112°
2026-05-05 04:29 0.99694 104.10881 5990 ft 281 kts 113°
2026-05-05 04:29 0.98693 104.13271 6005 ft 281 kts 112°
2026-05-05 04:30 0.98181 104.14495 6132 ft 283 kts 113°
2026-05-05 04:30 0.97415 104.16317 6649 ft 285 kts 113°
2026-05-05 04:30 0.96658 104.18113 7241 ft 284 kts 113°
2026-05-05 04:30 0.95890 104.19935 7808 ft 285 kts 113°
2026-05-05 04:31 0.95115 104.21766 8357 ft 287 kts 114°
2026-05-05 04:31 0.94185 104.23536 8910 ft 288 kts 121°
2026-05-05 04:31 0.93138 104.25243 9477 ft 289 kts 122°
2026-05-05 04:31 0.92064 104.26958 9989 ft 292 kts 122°
2026-05-05 04:32 0.90971 104.28704 10305 ft 302 kts 122°
2026-05-05 04:32 0.89832 104.30526 10486 ft 316 kts 122°
2026-05-05 04:32 0.88645 104.32430 10696 ft 329 kts 122°
2026-05-05 04:32 0.87413 104.34407 10858 ft 341 kts 122°
2026-05-05 04:33 0.86138 104.36455 11041 ft 352 kts 122°
2026-05-05 04:33 0.84829 104.38558 11282 ft 360 kts 122°
2026-05-05 04:33 0.83499 104.40692 11682 ft 362 kts 122°
2026-05-05 04:33 0.82162 104.42839 12044 ft 366 kts 121°
2026-05-05 04:34 0.80756 104.44962 12465 ft 367 kts 125°
2026-05-05 04:34 0.79256 104.47035 12858 ft 369 kts 126°
2026-05-05 04:34 0.77744 104.49117 13235 ft 371 kts 125°
2026-05-05 04:34 0.76232 104.51216 13610 ft 373 kts 125°
2026-05-05 04:35 0.74719 104.53331 13942 ft 375 kts 125°
2026-05-05 04:35 0.73128 104.55369 14250 ft 378 kts 132°
2026-05-05 04:35 0.71057 104.56986 14565 ft 382 kts 150°
2026-05-05 04:35 0.68578 104.57964 14899 ft 384 kts 161°
2026-05-05 04:36 0.66009 104.58725 15218 ft 386 kts 162°
2026-05-05 04:36 0.63421 104.59474 15556 ft 388 kts 162°
2026-05-05 04:36 0.60823 104.60231 15889 ft 390 kts 162°
2026-05-05 04:36 0.58213 104.60997 16210 ft 392 kts 162°
2026-05-05 04:37 0.55596 104.61770 16553 ft 393 kts 162°
2026-05-05 04:37 0.52964 104.62550 16870 ft 395 kts 162°
2026-05-05 04:37 0.50323 104.63334 17200 ft 397 kts 162°
2026-05-05 04:37 0.47669 104.64123 17510 ft 399 kts 162°
2026-05-05 04:38 0.45002 104.64919 17839 ft 401 kts 162°
2026-05-05 04:38 0.42322 104.65712 18163 ft 403 kts 162°
2026-05-05 04:38 0.39628 104.66507 18427 ft 404 kts 162°
2026-05-05 04:38 0.36924 104.67306 18697 ft 406 kts 162°
2026-05-05 04:39 0.34208 104.68109 18958 ft 408 kts 162°
2026-05-05 04:39 0.31481 104.68916 19211 ft 409 kts 162°
2026-05-05 04:39 0.28743 104.69727 19489 ft 411 kts 162°
2026-05-05 04:39 0.25998 104.70539 19748 ft 413 kts 162°
2026-05-05 04:40 0.23239 104.71356 20010 ft 414 kts 162°
2026-05-05 04:40 0.20470 104.72176 20268 ft 416 kts 162°
2026-05-05 04:40 0.17690 104.73000 20524 ft 417 kts 162°
2026-05-05 04:40 0.14899 104.73826 20778 ft 419 kts 162°
2026-05-05 04:41 0.12101 104.74661 21029 ft 421 kts 162°
2026-05-05 04:41 0.09289 104.75496 21277 ft 422 kts 162°
2026-05-05 04:41 0.06466 104.76332 21523 ft 424 kts 162°
2026-05-05 04:41 0.03635 104.77172 21765 ft 425 kts 162°
2026-05-05 04:42 0.00792 104.78016 22010 ft 427 kts 162°
2026-05-05 04:42 -0.02064 104.78863 22228 ft 429 kts 162°
2026-05-05 04:42 -0.04928 104.79714 22454 ft 431 kts 162°
2026-05-05 04:42 -0.07804 104.80568 22692 ft 432 kts 162°
2026-05-05 04:43 -0.10651 104.81413 22917 ft 433 kts 162°
2026-05-05 04:43 -0.13548 104.82273 23136 ft 435 kts 162°
2026-05-05 04:43 -0.16453 104.83136 23355 ft 436 kts 162°
2026-05-05 04:43 -0.19371 104.84003 23551 ft 438 kts 162°
2026-05-05 04:44 -0.22297 104.84871 23730 ft 439 kts 162°
2026-05-05 04:44 -0.25229 104.85747 23918 ft 440 kts 161°
2026-05-05 04:44 -0.28101 104.86818 24093 ft 440 kts 154°
2026-05-05 04:44 -0.30781 104.88284 24273 ft 440 kts 147°
2026-05-05 04:45 -0.33365 104.89923 24433 ft 440 kts 145°
2026-05-05 04:45 -0.35907 104.91638 24625 ft 441 kts 144°
2026-05-05 04:45 -0.38435 104.93386 24786 ft 443 kts 144°
2026-05-05 04:45 -0.40966 104.95142 24963 ft 444 kts 144°
2026-05-05 04:46 -0.43510 104.96898 25126 ft 445 kts 144°
2026-05-05 04:46 -0.46065 104.98649 25320 ft 446 kts 144°
2026-05-05 04:46 -0.48632 105.00397 25485 ft 447 kts 144°
2026-05-05 04:46 -0.51209 105.02143 25661 ft 448 kts 144°
2026-05-05 04:47 -0.53797 105.03895 25840 ft 449 kts 144°
2026-05-05 04:47 -0.56389 105.05647 26023 ft 450 kts 144°
2026-05-05 04:47 -0.58956 105.07382 26195 ft 452 kts 144°
2026-05-05 04:47 -0.61558 105.09141 26375 ft 453 kts 144°
2026-05-05 04:48 -0.64172 105.10909 26558 ft 454 kts 144°
2026-05-05 04:48 -0.66791 105.12681 26729 ft 455 kts 144°
2026-05-05 04:48 -0.69417 105.14458 26921 ft 456 kts 144°
2026-05-05 04:48 -0.72052 105.16241 27105 ft 458 kts 145°
2026-05-05 04:49 -0.74690 105.18026 27298 ft 459 kts 145°
2026-05-05 04:49 -0.77340 105.19820 27480 ft 460 kts 145°
2026-05-05 04:49 -0.79993 105.21615 27665 ft 461 kts 145°
2026-05-05 04:49 -0.82659 105.23419 27857 ft 463 kts 145°
2026-05-05 04:50 -0.85327 105.25224 28053 ft 464 kts 145°
2026-05-05 04:50 -0.88002 105.27035 28235 ft 465 kts 145°
2026-05-05 04:50 -0.90687 105.28852 28425 ft 467 kts 145°
2026-05-05 04:50 -0.93379 105.30674 28609 ft 468 kts 145°
2026-05-05 04:51 -0.96079 105.32501 28785 ft 469 kts 145°
2026-05-05 04:51 -0.98787 105.34334 28982 ft 471 kts 145°
2026-05-05 04:51 -1.01504 105.36173 29157 ft 472 kts 145°
2026-05-05 04:51 -1.04223 105.38013 29353 ft 473 kts 145°
2026-05-05 04:52 -1.06954 105.39861 29531 ft 474 kts 145°
2026-05-05 04:52 -1.09689 105.41713 29732 ft 476 kts 145°
2026-05-05 04:52 -1.12436 105.43572 29897 ft 478 kts 145°
2026-05-05 04:52 -1.15194 105.45439 30061 ft 480 kts 145°
2026-05-05 04:53 -1.17925 105.47288 30214 ft 481 kts 145°
2026-05-05 04:53 -1.20697 105.49164 30392 ft 482 kts 145°
2026-05-05 04:53 -1.23478 105.51047 30551 ft 483 kts 145°
2026-05-05 04:53 -1.26268 105.52935 30722 ft 485 kts 145°
2026-05-05 04:54 -1.29066 105.54829 30893 ft 486 kts 145°
2026-05-05 04:54 -1.31867 105.56726 31063 ft 487 kts 145°
2026-05-05 04:54 -1.34683 105.58632 31231 ft 489 kts 145°
2026-05-05 04:54 -1.37502 105.60541 31400 ft 490 kts 145°
2026-05-05 04:55 -1.40329 105.62455 31554 ft 491 kts 145°
2026-05-05 04:55 -1.43167 105.64376 31705 ft 493 kts 145°
2026-05-05 04:55 -1.46009 105.66301 31822 ft 495 kts 145°
2026-05-05 04:55 -1.48864 105.68234 31942 ft 497 kts 145°
2026-05-05 04:56 -1.51730 105.70174 32080 ft 498 kts 145°
2026-05-05 04:56 -1.54604 105.72121 32228 ft 499 kts 145°
2026-05-05 04:56 -1.57482 105.74069 32394 ft 500 kts 145°
2026-05-05 04:56 -1.60366 105.76022 32519 ft 501 kts 145°
2026-05-05 04:57 -1.63254 105.77979 32666 ft 502 kts 145°
2026-05-05 04:57 -1.66152 105.79941 32787 ft 503 kts 145°
2026-05-05 04:57 -1.69055 105.81908 32921 ft 504 kts 145°
2026-05-05 04:57 -1.71963 105.83877 33044 ft 505 kts 145°
2026-05-05 04:58 -1.74840 105.85826 33177 ft 506 kts 145°
2026-05-05 04:58 -1.77762 105.87805 33321 ft 507 kts 145°
2026-05-05 04:58 -1.80676 105.89778 33535 ft 506 kts 145°
2026-05-05 04:58 -1.83587 105.91751 33752 ft 505 kts 145°
2026-05-05 04:59 -1.86495 105.93720 34060 ft 502 kts 145°
2026-05-05 04:59 -1.89375 105.95671 34306 ft 500 kts 145°
2026-05-05 04:59 -1.92253 105.97621 34481 ft 500 kts 145°
2026-05-05 04:59 -1.95131 105.99571 34690 ft 500 kts 145°
2026-05-05 05:00 -1.98006 106.01520 34897 ft 499 kts 145°
2026-05-05 05:00 -2.00874 106.03461 35121 ft 498 kts 145°
2026-05-05 05:00 -2.03740 106.05403 35352 ft 497 kts 145°
2026-05-05 05:00 -2.06600 106.07341 35568 ft 497 kts 145°
2026-05-05 05:01 -2.09456 106.09278 35801 ft 496 kts 145°
2026-05-05 05:01 -2.12312 106.11210 36022 ft 496 kts 145°
2026-05-05 05:01 -2.15293 106.12941 36228 ft 496 kts 153°
2026-05-05 05:01 -2.18487 106.14234 36443 ft 496 kts 162°
2026-05-05 05:02 -2.21838 106.15073 36653 ft 497 kts 167°
2026-05-05 05:02 -2.25234 106.15743 36806 ft 498 kts 169°
2026-05-05 05:02 -2.28644 106.16339 37038 ft 497 kts 169°
2026-05-05 05:02 -2.32054 106.16903 37280 ft 496 kts 170°
2026-05-05 05:03 -2.35443 106.17455 37523 ft 495 kts 169°
2026-05-05 05:03 -2.38841 106.18013 37765 ft 494 kts 169°
2026-05-05 05:03 -2.42216 106.18574 37993 ft 494 kts 169°
2026-05-05 05:03 -2.45599 106.19145 38219 ft 493 kts 169°
2026-05-05 05:04 -2.48977 106.19720 38440 ft 492 kts 169°
2026-05-05 05:04 -2.52352 106.20297 38638 ft 492 kts 169°
2026-05-05 05:04 -2.55726 106.20875 38801 ft 492 kts 169°
2026-05-05 05:04 -2.59096 106.21453 38966 ft 491 kts 169°
2026-05-05 05:05 -2.62464 106.22030 39144 ft 491 kts 169°
2026-05-05 05:05 -2.65828 106.22606 39294 ft 491 kts 169°
2026-05-05 05:05 -2.69191 106.23182 39446 ft 490 kts 169°
2026-05-05 05:05 -2.72553 106.23758 39589 ft 490 kts 169°
2026-05-05 05:06 -2.75916 106.24333 39742 ft 490 kts 169°
2026-05-05 05:06 -2.79273 106.24908 39881 ft 490 kts 169°
2026-05-05 05:06 -2.82625 106.25482 40023 ft 489 kts 169°
2026-05-05 05:06 -2.85983 106.26056 40159 ft 489 kts 169°
2026-05-05 05:07 -2.89340 106.26631 40296 ft 489 kts 169°
2026-05-05 05:07 -2.92690 106.27205 40425 ft 489 kts 169°
2026-05-05 05:07 -2.96048 106.27780 40522 ft 489 kts 169°
2026-05-05 05:08 -3.02723 106.28923 40728 ft 490 kts 169°
2026-05-05 05:08 -3.06084 106.29498 40844 ft 490 kts 169°
2026-05-05 05:08 -3.09442 106.30073 40889 ft 490 kts 169°
2026-05-05 05:09 -3.16152 106.31223 40883 ft 489 kts 169°
2026-05-05 05:09 -3.22857 106.32371 40895 ft 489 kts 169°
2026-05-05 05:10 -3.29562 106.33520 40882 ft 489 kts 169°
2026-05-05 05:10 -3.36269 106.34669 40893 ft 489 kts 169°
2026-05-05 05:11 -3.42979 106.35820 40885 ft 489 kts 169°
2026-05-05 05:11 -3.49690 106.36970 40897 ft 489 kts 169°
2026-05-05 05:12 -3.56402 106.38120 40885 ft 489 kts 169°
2026-05-05 05:12 -3.63117 106.39272 40893 ft 489 kts 169°
2026-05-05 05:13 -3.69814 106.40494 40881 ft 490 kts 168°
2026-05-05 05:13 -3.76520 106.41770 40892 ft 491 kts 168°
2026-05-05 05:14 -3.83192 106.43034 40883 ft 491 kts 168°
2026-05-05 05:14 -3.89955 106.44303 40881 ft 491 kts 168°
2026-05-05 05:15 -3.96629 106.45552 40893 ft 491 kts 168°
2026-05-05 05:15 -4.03350 106.46810 40882 ft 491 kts 168°
2026-05-05 05:16 -4.10066 106.48066 40888 ft 491 kts 168°
2026-05-05 05:16 -4.16781 106.49324 40885 ft 491 kts 168°
2026-05-05 05:17 -4.23491 106.50581 40824 ft 491 kts 168°
2026-05-05 05:17 -4.26848 106.51210 40386 ft 491 kts 168°
2026-05-05 05:17 -4.29075 106.51627 39972 ft 491 kts 168°
2026-05-05 05:17 -4.32441 106.52258 39295 ft 492 kts 168°
2026-05-05 05:18 -4.35815 106.52890 38608 ft 493 kts 168°
2026-05-05 05:18 -4.39196 106.53524 37779 ft 495 kts 168°
2026-05-05 05:18 -4.43710 106.54370 36553 ft 501 kts 168°
2026-05-05 05:18 -4.45927 106.54785 35992 ft 504 kts 168°
2026-05-05 05:19 -4.50612 106.55664 34845 ft 508 kts 168°
2026-05-05 05:19 -4.52965 106.56105 34263 ft 510 kts 168°
2026-05-05 05:19 -4.57598 106.56974 33071 ft 513 kts 168°
2026-05-05 05:19 -4.59930 106.57411 32450 ft 515 kts 168°
2026-05-05 05:20 -4.63450 106.58072 31543 ft 517 kts 168°
2026-05-05 05:20 -4.66996 106.58737 30647 ft 518 kts 168°
2026-05-05 05:20 -4.70535 106.59400 29699 ft 514 kts 168°
2026-05-05 05:20 -4.74030 106.60055 28437 ft 505 kts 168°
2026-05-05 05:21 -4.77414 106.60687 28038 ft 488 kts 168°
2026-05-05 05:21 -4.80755 106.61313 27805 ft 490 kts 168°
2026-05-05 05:21 -4.84093 106.61940 27562 ft 486 kts 168°
2026-05-05 05:21 -4.87409 106.62563 27320 ft 484 kts 168°
2026-05-05 05:22 -4.90713 106.63187 27092 ft 482 kts 167°
2026-05-05 05:22 -4.93944 106.64034 26894 ft 479 kts 160°
2026-05-05 05:22 -4.96997 106.65328 26666 ft 475 kts 152°
2026-05-05 05:22 -4.99918 106.66868 26455 ft 473 kts 150°
2026-05-05 05:23 -5.02797 106.68452 26230 ft 471 kts 149°
2026-05-05 05:23 -5.05665 106.70046 25991 ft 469 kts 149°
2026-05-05 05:23 -5.08483 106.71616 25887 ft 456 kts 149°
2026-05-05 05:23 -5.11212 106.73137 25758 ft 442 kts 149°
2026-05-05 05:24 -5.13857 106.74612 25664 ft 427 kts 149°
2026-05-05 05:24 -5.16415 106.76040 25559 ft 416 kts 149°
2026-05-05 05:24 -5.18950 106.77427 25332 ft 415 kts 152°
2026-05-05 05:24 -5.21558 106.78620 25054 ft 409 kts 155°
2026-05-05 05:25 -5.24157 106.79748 24650 ft 405 kts 155°
2026-05-05 05:25 -5.26740 106.80880 24191 ft 403 kts 154°
2026-05-05 05:25 -5.29301 106.82018 23743 ft 402 kts 154°
2026-05-05 05:25 -5.31819 106.83147 23247 ft 401 kts 154°
2026-05-05 05:26 -5.34353 106.84288 22764 ft 398 kts 154°
2026-05-05 05:26 -5.36870 106.85424 22299 ft 395 kts 154°
2026-05-05 05:26 -5.39360 106.86551 21998 ft 387 kts 154°
2026-05-05 05:26 -5.41775 106.87643 21875 ft 374 kts 154°
2026-05-05 05:27 -5.44134 106.88705 21470 ft 371 kts 155°
2026-05-05 05:27 -5.46597 106.89455 21060 ft 371 kts 171°
2026-05-05 05:27 -5.51663 106.88586 20166 ft 377 kts 199°
2026-05-05 05:28 -5.54103 106.87632 19601 ft 373 kts 200°
2026-05-05 05:28 -5.56508 106.86677 19076 ft 372 kts 200°
2026-05-05 05:28 -5.58917 106.85731 18606 ft 371 kts 200°
2026-05-05 05:28 -5.61321 106.84793 18180 ft 369 kts 199°
2026-05-05 05:29 -5.63712 106.83865 17691 ft 367 kts 199°
2026-05-05 05:29 -5.66074 106.82951 17143 ft 359 kts 199°
2026-05-05 05:29 -5.68389 106.82056 16609 ft 354 kts 199°
2026-05-05 05:29 -5.70697 106.81165 16193 ft 356 kts 199°
2026-05-05 05:30 -5.72978 106.80285 15696 ft 349 kts 199°
2026-05-05 05:30 -5.75242 106.79412 15215 ft 348 kts 199°
2026-05-05 05:30 -5.77493 106.78543 14758 ft 346 kts 199°
2026-05-05 05:30 -5.79746 106.77675 14366 ft 347 kts 199°
2026-05-05 05:31 -5.81990 106.76809 13930 ft 345 kts 199°
2026-05-05 05:31 -5.84220 106.75932 13451 ft 344 kts 201°
2026-05-05 05:31 -5.86226 106.74668 12893 ft 343 kts 222°
2026-05-05 05:31 -5.87594 106.72724 12475 ft 340 kts 244°
2026-05-05 05:32 -5.88519 106.70548 12078 ft 338 kts 248°
2026-05-05 05:32 -5.89374 106.68362 11690 ft 335 kts 248°
2026-05-05 05:32 -5.90071 106.66576 11369 ft 334 kts 248°
2026-05-05 05:32 -5.90908 106.64452 10984 ft 333 kts 248°
2026-05-05 05:33 -5.91762 106.62298 10598 ft 331 kts 248°
2026-05-05 05:33 -5.92599 106.60195 10328 ft 324 kts 248°
2026-05-05 05:33 -5.93422 106.58131 10174 ft 313 kts 248°
2026-05-05 05:33 -5.94230 106.56139 9957 ft 305 kts 247°
2026-05-05 05:34 -5.95032 106.54172 9562 ft 303 kts 247°
2026-05-05 05:34 -5.95825 106.52229 9290 ft 297 kts 247°
2026-05-05 05:34 -5.96599 106.50329 9083 ft 292 kts 247°
2026-05-05 05:34 -5.97370 106.48440 8870 ft 293 kts 247°
2026-05-05 05:35 -5.98140 106.46550 8673 ft 292 kts 247°
2026-05-05 05:35 -5.98908 106.44664 8448 ft 291 kts 247°
2026-05-05 05:35 -5.99673 106.42786 8229 ft 290 kts 247°
2026-05-05 05:35 -6.00434 106.40920 8026 ft 287 kts 247°
2026-05-05 05:36 -6.01190 106.39063 7827 ft 286 kts 247°
2026-05-05 05:36 -6.01924 106.37258 7678 ft 270 kts 247°
2026-05-05 05:36 -6.02621 106.35544 7502 ft 261 kts 247°
2026-05-05 05:36 -6.03307 106.33877 7287 ft 255 kts 246°
2026-05-05 05:37 -6.04275 106.32432 7097 ft 248 kts 219°
2026-05-05 05:37 -6.05792 106.31719 6863 ft 240 kts 183°
2026-05-05 05:37 -6.07431 106.31810 6669 ft 236 kts 167°
2026-05-05 05:37 -6.09049 106.32104 6444 ft 237 kts 166°
2026-05-05 05:38 -6.10664 106.32412 6232 ft 236 kts 166°
2026-05-05 05:38 -6.12264 106.32710 6068 ft 229 kts 166°
2026-05-05 05:38 -6.13795 106.32987 5943 ft 219 kts 166°
2026-05-05 05:38 -6.15275 106.33253 5722 ft 214 kts 166°
2026-05-05 05:39 -6.16717 106.33513 5512 ft 213 kts 167°
2026-05-05 05:39 -6.18181 106.33773 5342 ft 213 kts 166°
2026-05-05 05:39 -6.19629 106.34067 5180 ft 211 kts 160°
2026-05-05 05:39 -6.20854 106.34809 4970 ft 204 kts 128°
2026-05-05 05:40 -6.21674 106.35953 4816 ft 202 kts 120°
2026-05-05 05:40 -6.22411 106.37160 4685 ft 203 kts 120°
2026-05-05 05:40 -6.23144 106.38370 4588 ft 202 kts 120°
2026-05-05 05:40 -6.23583 106.39678 4465 ft 198 kts 89°
2026-05-05 05:41 -6.23407 106.41049 4322 ft 197 kts 75°
2026-05-05 05:41 -6.22983 106.42311 4228 ft 184 kts 69°
2026-05-05 05:41 -6.22517 106.43484 4070 ft 178 kts 69°
2026-05-05 05:41 -6.22058 106.44632 3919 ft 176 kts 68°
2026-05-05 05:42 -6.21607 106.45782 3751 ft 176 kts 69°
2026-05-05 05:42 -6.21156 106.46937 3539 ft 179 kts 68°
2026-05-05 05:42 -6.20696 106.48092 3314 ft 176 kts 68°
2026-05-05 05:42 -6.20254 106.49207 3070 ft 167 kts 68°
2026-05-05 05:43 -6.19838 106.50255 2864 ft 157 kts 69°
2026-05-05 05:43 -6.19439 106.51265 2660 ft 153 kts 69°
2026-05-05 05:43 -6.19055 106.52231 2464 ft 146 kts 70°
2026-05-05 05:43 -6.18687 106.53164 2278 ft 142 kts 69°
2026-05-05 05:44 -6.18326 106.54074 2102 ft 137 kts 68°
2026-05-05 05:44 -6.17974 106.54959 1923 ft 137 kts 69°
2026-05-05 05:44 -6.17623 106.55848 1744 ft 136 kts 68°
2026-05-05 05:44 -6.17272 106.56736 1595 ft 138 kts 67°
2026-05-05 05:45 -6.16920 106.57624 1385 ft 137 kts 66°
2026-05-05 05:45 -6.16570 106.58503 1218 ft 137 kts 68°
2026-05-05 05:45 -6.16216 106.59397 1029 ft 137 kts 66°
2026-05-05 05:45 -6.15860 106.60296 871 ft 140 kts 66°
2026-05-05 05:46 -6.15509 106.61184 692 ft 134 kts 64°
2026-05-05 05:46 -6.15159 106.62067 547 ft 139 kts 66°
2026-05-05 05:46 -6.14819 106.62970 365 ft 138 kts 65°
2026-05-05 05:46 -6.14458 106.63870 203 ft 136 kts 65°
2026-05-05 05:47 -6.14111 106.64742 49 ft 132 kts 64°
2026-05-05 05:47 -6.13785 106.65535 41 ft 108 kts 68°
2026-05-05 05:47 -6.13617 106.65964 43 ft 24 kts 68°
2026-05-05 05:47 -6.13552 106.66116 44 ft 23 kts 60°
2026-05-05 05:48 -6.13460 106.66233 46 ft 21 kts 41°
2026-05-05 05:48 -6.13338 106.66299 46 ft 19 kts
2026-05-05 05:48 -6.13257 106.66383 45 ft 17 kts 68°
2026-05-05 05:48 -6.13212 106.66503 46 ft 20 kts 69°
2026-05-05 05:49 -6.13155 106.66637 45 ft 22 kts 66°
2026-05-05 05:49 -6.13094 106.66778 42 ft 23 kts 66°
2026-05-05 05:49 -6.13034 106.66933 43 ft 25 kts 70°
2026-05-05 05:49 -6.12973 106.67097 44 ft 25 kts 68°
2026-05-05 05:50 -6.12905 106.67264 42 ft 27 kts 68°
2026-05-05 05:50 -6.12838 106.67431 44 ft 25 kts 65°
2026-05-05 05:50 -6.12750 106.67588 43 ft 27 kts 59°
2026-05-05 05:50 -6.12648 106.67749 41 ft 28 kts 48°
2026-05-05 05:51 -6.12482 106.67851 44 ft 27 kts 14°
2026-05-05 05:51 -6.12305 106.67844 47 ft 25 kts 342°
2026-05-05 05:51 -6.12151 106.67785 49 ft 24 kts 339°
2026-05-05 05:51 -6.11958 106.67709 40 ft 30 kts 339°
2026-05-05 05:52 -6.11757 106.67631 37 ft 32 kts 339°
2026-05-05 05:52 -6.11548 106.67547 38 ft 32 kts 338°
2026-05-05 05:52 -6.11367 106.67473 37 ft 18 kts 338°
2026-05-05 05:52 -6.11243 106.67421 37 ft 20 kts 329°
2026-05-05 05:53 -6.11221 106.67307 39 ft 18 kts 251°
2026-05-05 05:53 -6.11252 106.67209 39 ft 10 kts 265°
2026-05-05 05:53 -6.11273 106.67136 39 ft 11 kts 247°
2026-05-05 05:53 -6.11275 106.67131 39 ft 0 kts 248°
2026-05-05 05:54 -6.11277 106.67126 39 ft 0 kts 248°